[[{"header":{"parameterUnit":"m.s-1","parameterCategory":1,"la1":30.2991,"la2":30.254,"lo1":-89.0895,"lo2":-89.0444,"dy":0.0017,"dx":0.0017,"nx":28,"ny":28,"refTime":"2023-10-24T03:00:00:Z","depth":0,"parameterNumber":2,"parameterNumberName":"U-component_of_WINDS"},"data":[0,0,0,0,0,0,0,0,0,0,0,0,0,0,0,0,0,0,0,0,0,0,0,0,0,0,0,0,0,0,0,0,0,0,0,0,0,0,0,0,0,0,0,0,0,0,0,0,0,0,0,0,0,0,0,0,0,0,-6.127,-6.1272,0,-6.1408,-6.1409,-6.1411,-6.1345,-6.1341,-6.1338,-6.1335,-6.1473,-6.148,-6.1487,0,0,0,0,0,0,0,0,0,0,0,0,0,-6.0951,-6.0957,-6.127,-6.1272,-6.1274,-6.1407,-6.1409,-6.1411,-6.1345,-6.1341,-6.1337,-6.1333,-6.1471,-6.1479,-6.1488,0,0,0,0,0,0,0,0,0,0,0,0,0,-6.1089,-6.0959,-6.127,-6.1257,-6.1257,-6.1407,-6.1409,-6.1412,-6.1346,-6.1341,-6.1336,-6.1331,-6.1468,-6.1479,-6.1489,-6.1659,0,0,-6.1521,-6.1525,0,0,0,0,0,0,0,0,-6.1081,-6.1101,-6.1257,-6.1258,-6.1259,-6.1354,-6.1348,-6.1494,-6.1348,-6.1313,-6.1334,-6.1328,-6.1438,-6.145,-6.1488,-6.1665,-6.1671,-6.1522,-6.1528,-6.1533,-6.1535,0,0,0,0,0,0,0,-6.1072,-6.1095,-6.1324,-6.126,-6.1261,-6.1244,-6.1258,-6.1375,-6.1403,-6.1315,-6.1311,-6.1328,-6.1437,-6.1478,-6.149,-6.1673,-6.1521,-6.1531,-6.1537,-6.1541,-6.1999,-6.2004,0,0,0,0,0,0,-6.1063,-6.1087,-6.132,-6.1329,-6.1155,-6.1255,-6.127,-6.1329,-6.1401,-6.1408,-6.1332,-6.1324,-6.1462,-6.1478,-6.1495,-6.1699,-6.1532,-6.1542,-6.1548,-6.1993,-6.2,-6.2007,0,0,0,0,0,0,-6.1056,-6.1084,-6.1315,-6.1207,-6.1235,-6.1266,-6.1332,-6.1334,-6.1374,-6.1414,-6.1419,-6.1369,-6.1459,-6.148,-6.1619,-6.1703,-6.1547,-6.1556,-6.1986,-6.1995,-6.2003,-6.2108,0,0,0,0,0,0,-6.1047,-6.1082,-6.1147,-6.1209,-6.1241,-6.1436,-6.1337,-6.1341,-6.1393,-6.1384,-6.145,-6.1456,-6.1456,-6.1604,-6.1629,-6.1714,-6.1565,-6.1979,-6.199,-6.2001,-6.2097,-6.2119,-6.2138,0,0,0,0,0,-6.1036,-6.117,-6.115,-6.1179,-6.1322,-6.1441,-6.1459,-6.1458,-6.14,-6.1465,-6.1491,-6.1453,-6.169,-6.1619,-6.1647,-6.1736,-6.1973,-6.1987,-6.2,-6.2087,-6.2114,-6.2137,0,0,0,0,0,0,-6.1115,-6.1177,-6.1156,-6.1314,-6.1373,-6.143,-6.1511,-6.1487,-6.1562,-6.1551,-6.1546,-6.1561,-6.1705,-6.1735,-6.1654,-6.1905,-6.1823,-6.1842,-6.188,-6.1906,-6.1926,-6.1914,-6.1573,0,0,0,0,0,-6.1151,-6.1243,-6.1293,-6.1427,-6.1458,-6.148,-6.1532,-6.1526,-6.1587,-6.1611,-6.1647,-6.1707,-6.1795,-6.1852,-6.1935,-6.2102,-6.2116,-6.2178,-6.2198,-6.2215,-6.2231,-6.2322,-6.235,-6.205,-6.205,-6.205,0,0,-6.1225,-6.1271,-6.1329,-6.1444,-6.1489,-6.1584,-6.1501,-6.1605,-6.1675,-6.1626,-6.1759,-6.1789,-6.1855,-6.2009,-6.2079,-6.2038,-6.2318,-6.2232,-6.2245,-6.2252,-6.2339,-6.2367,-6.2392,-6.2059,-6.2057,-6.2056,0,0,-6.1409,-6.1454,-6.1571,-6.1618,-6.1688,-6.1703,-6.1732,-6.1793,-6.1811,-6.1945,-6.1911,-6.1996,-6.2147,-6.2196,-6.2241,-6.2449,-6.2417,-6.2476,-6.2582,-6.2671,-6.2695,-6.2715,-6.2789,-6.2815,-6.2493,-6.2493,-6.2493,0,-6.1492,-6.1634,-6.1634,-6.1741,-6.1793,-6.1756,-6.1874,-6.1921,-6.2014,-6.205,-6.2005,-6.2196,-6.2238,-6.2403,-6.2454,-6.2492,-6.2524,-6.2467,-6.2692,-6.2712,-6.2732,-6.2802,-6.2829,-6.25,-6.2499,-6.2498,-6.2498,0,-6.1733,-6.1833,-6.1919,-6.2011,-6.2073,-6.2186,-6.2203,-6.2266,-6.2257,-6.2276,-6.2414,-6.2465,-6.2558,-6.2597,-6.2588,-6.2762,-6.2735,-6.2691,-6.2607,-6.2767,-6.2833,-6.2859,-6.2509,-6.2507,-6.2505,-6.2503,0,0,-6.1965,-6.206,-6.2091,-6.2133,-6.221,-6.2286,-6.2399,-6.2491,-6.2545,-6.2612,-6.2705,-6.2837,-6.2798,-6.2849,-6.2846,-6.2924,-6.3086,-6.2871,-6.2872,-6.2907,-6.328,-6.331,-6.3341,-6.3067,-6.3072,-6.3076,-6.3274,0,-6.2153,-6.2349,-6.2354,-6.2533,-6.2625,-6.2594,-6.2691,-6.2749,-6.2772,-6.2854,-6.2879,-6.2972,-6.2913,-6.2944,-6.3021,-6.305,-6.316,-6.3036,-6.3152,-6.3156,-6.3133,-6.3376,-6.3408,-6.3592,-6.3299,-6.3304,-6.3307,0,-6.2397,-6.2474,-6.2663,-6.2728,-6.2767,-6.2855,-6.2941,-6.302,-6.3086,-6.3097,-6.3157,-6.3143,-6.3258,-6.3174,-6.3333,-6.3248,-6.3297,-6.3319,-6.3326,-6.3334,-6.3239,-6.3388,-6.3651,-6.3677,-6.3347,-6.3344,-6.3341,0,-6.2546,-6.2697,-6.2829,-6.2867,-6.2947,-6.3009,-6.3046,-6.3107,-6.3163,-6.3239,-6.3275,-6.3364,-6.3412,-6.3481,-6.3492,-6.343,-6.3651,-6.3568,-6.3663,-6.3663,-6.3708,-6.3704,-6.3979,-6.3744,-6.3744,-6.3743,-6.3743,0,-6.2753,-6.2869,-6.2897,-6.2978,-6.3109,-6.3115,-6.3243,-6.3275,-6.333,-6.3417,-6.3397,-6.3479,-6.349,-6.3576,-6.3586,-6.3715,-6.3738,-6.375,-6.375,-6.375,-6.3748,-6.3779,-6.3766,-6.375,-6.3749,-6.3747,-6.3746,0,-6.2939,-6.2962,-6.3105,-6.3171,-6.319,-6.3283,-6.3339,-6.3418,-6.344,-6.3551,-6.3578,-6.3613,-6.3713,-6.3732,-6.385,-6.3857,-6.4011,-6.4,-6.3989,-6.3986,-6.408,-6.407,-6.4382,-6.4423,-6.4163,-6.4166,-6.4168,0,-6.3068,-6.3157,-6.3234,-6.3291,-6.3331,-6.3424,-6.3482,-6.3493,-6.3554,-6.3638,-6.3706,-6.3805,-6.3883,-6.4045,-6.4081,-6.4172,-6.4161,-6.4265,-6.4174,-6.4172,-6.4161,-6.4154,-6.4163,-6.4281,-6.4283,-6.4286,-6.4288,0,-6.3294,-6.3303,-6.3387,-6.3478,-6.3548,-6.3619,-6.3686,-6.3735,-6.3755,-6.3825,-6.3928,-6.3989,-6.4111,-6.4209,-6.43,-6.4338,-6.4316,-6.4317,-6.4343,-6.4342,-6.4331,-6.4336,-6.4033,-6.4308,-6.4306,-6.4305,-6.4303,-6.4303,-6.3454,-6.3533,-6.3599,-6.3695,-6.3748,-6.3812,-6.389,-6.3923,-6.4009,-6.411,-6.4112,-6.4224,-6.4291,-6.4411,-6.4455,-6.4544,-6.4511,-6.4549,-6.4559,-6.4567,-6.4575,-6.432,-6.4561,-6.456,-6.456,-6.4559,-6.4559,0,-6.3678,-6.3721,-6.3809,-6.3905,-6.3981,-6.3958,-6.4032,-6.4097,-6.4196,-6.4261,-6.434,-6.4459,-6.4555,-6.46,-6.4695,-6.4757,-6.475,-6.4782,-6.4775,-6.4784,-6.46,-6.4567,-6.4786,-6.4786,-6.4786,-6.4786,-6.4786,-6.4786,-6.3803,-6.3934,-6.3951,-6.4109,-6.4151,-6.4262,-6.4306,-6.4366,-6.4418,-6.4552,-6.4632,-6.4662,-6.4719,-6.4819,-6.4906,-6.4917,-6.4952,-6.4988,-6.4995,-6.4821,-6.4797,-6.4775,-6.4744,-6.4997,-6.4997,-6.5171,-6.5173,-6.5174]},{"header":{"parameterUnit":"m.s-1","parameterCategory":1,"la1":30.2991,"la2":30.254,"lo1":-89.0895,"lo2":-89.0444,"dy":0.0017,"dx":0.0017,"nx":28,"ny":28,"refTime":"2023-10-24T03:00:00:Z","depth":0,"parameterNumber":3,"parameterNumberName":"V-component_of_WINDS"},"data":[0,0,0,0,0,0,0,0,0,0,0,0,0,0,0,0,0,0,0,0,0,0,0,0,0,0,0,0,0,0,0,0,0,0,0,0,0,0,0,0,0,0,0,0,0,0,0,0,0,0,0,0,0,0,0,0,0,0,2.1884,2.1884,0,2.1876,2.1876,2.1876,2.1786,2.1783,2.1781,2.1779,2.1776,2.1778,2.178,0,0,0,0,0,0,0,0,0,0,0,0,0,2.1829,2.183,2.1884,2.1884,2.1884,2.1876,2.1876,2.1876,2.1786,2.1783,2.178,2.1778,2.1775,2.1777,2.178,0,0,0,0,0,0,0,0,0,0,0,0,0,2.184,2.1831,2.1884,2.1838,2.1834,2.1876,2.1876,2.1876,2.1787,2.1783,2.178,2.1777,2.1774,2.1777,2.178,2.1867,0,0,2.1789,2.1791,0,0,0,0,0,0,0,0,2.184,2.1842,2.1845,2.1841,2.1837,2.1828,2.1855,2.1873,2.1787,2.1805,2.1779,2.1775,2.1796,2.1797,2.1803,2.1867,2.1867,2.179,2.1792,2.1793,2.1794,0,0,0,0,0,0,0,2.1839,2.1842,2.1881,2.1845,2.184,2.182,2.1818,2.1858,2.182,2.1803,2.1796,2.1796,2.1793,2.1801,2.1803,2.1867,2.179,2.1792,2.1794,2.1795,2.2006,2.2009,0,0,0,0,0,0,2.1844,2.1842,2.1881,2.1881,2.183,2.1824,2.1821,2.1834,2.1819,2.1813,2.1799,2.1792,2.1797,2.1799,2.1802,2.1905,2.1793,2.1796,2.1797,2.2002,2.2007,2.2011,0,0,0,0,0,0,2.1843,2.1848,2.1882,2.186,2.1862,2.1828,2.1844,2.1836,2.1843,2.1816,2.181,2.1813,2.1794,2.1798,2.1852,2.1903,2.1797,2.18,2.1998,2.2003,2.2009,2.211,0,0,0,0,0,0,2.1842,2.1848,2.1879,2.1861,2.1864,2.193,2.1847,2.1838,2.1848,2.1839,2.1828,2.1823,2.1792,2.1848,2.1855,2.1906,2.1802,2.1993,2.2,2.2007,2.2102,2.2119,2.2133,0,0,0,0,0,2.184,2.1908,2.1881,2.1886,2.1901,2.1933,2.1935,2.1897,2.1853,2.1885,2.1868,2.1823,2.1897,2.1854,2.1862,2.1914,2.1989,2.1998,2.2006,2.2095,2.2115,2.2132,0,0,0,0,0,0,2.1934,2.1905,2.1874,2.1939,2.1939,2.1918,2.1956,2.1919,2.1933,2.1923,2.1877,2.1876,2.1938,2.1931,2.1885,2.1999,2.1936,2.1946,2.2001,2.202,2.2035,2.2035,2.1805,0,0,0,0,0,2.1963,2.1989,2.1962,2.2022,2.2024,2.1991,2.2003,2.1974,2.1973,2.1973,2.196,2.1962,2.1986,2.2003,2.2023,2.2101,2.2099,2.2141,2.2157,2.2169,2.2179,2.2222,2.2242,2.2038,2.2038,2.2038,0,0,2.2021,2.2009,2.2028,2.2041,2.2037,2.2068,2.1991,2.2026,2.2048,2.1978,2.2028,2.202,2.202,2.2087,2.2116,2.2084,2.2235,2.218,2.219,2.2193,2.2233,2.2252,2.227,2.2044,2.2043,2.2042,0,0,2.2144,2.2136,2.2185,2.2184,2.218,2.2158,2.217,2.2155,2.2147,2.2196,2.2145,2.2173,2.2214,2.2217,2.2224,2.2352,2.2312,2.236,2.244,2.2483,2.2499,2.2513,2.256,2.2577,2.237,2.237,2.237,0,2.2217,2.2259,2.2216,2.2255,2.2263,2.2201,2.2252,2.2254,2.2257,2.2266,2.2229,2.2282,2.2277,2.2345,2.2377,2.2384,2.2399,2.236,2.25,2.2513,2.2526,2.257,2.2588,2.2376,2.2375,2.2374,2.2374,0,2.2351,2.2381,2.2422,2.2426,2.2439,2.2484,2.2451,2.247,2.2441,2.2424,2.2478,2.247,2.2489,2.2504,2.2476,2.2569,2.2549,2.2507,2.2442,2.2552,2.2593,2.2609,2.2384,2.2382,2.238,2.2379,0,0,2.253,2.2511,2.2527,2.253,2.2522,2.2546,2.259,2.2607,2.2625,2.2631,2.2669,2.2707,2.2668,2.2677,2.2649,2.2687,2.2791,2.264,2.264,2.2669,2.2896,2.2928,2.2948,2.2765,2.2768,2.277,2.2897,0,2.2648,2.2719,2.2684,2.2761,2.279,2.2733,2.2772,2.2773,2.276,2.2784,2.277,2.2798,2.2744,2.2749,2.2784,2.2771,2.2836,2.2761,2.2801,2.2803,2.2803,2.2969,2.3003,2.3122,2.2912,2.2915,2.2917,0,2.2795,2.2806,2.2886,2.2875,2.2886,2.2921,2.2936,2.296,2.2962,2.2949,2.296,2.2925,2.297,2.2907,2.297,2.292,2.2935,2.2932,2.2935,2.2937,2.2866,2.2977,2.3159,2.3177,2.2941,2.294,2.2938,0,2.2919,2.2954,2.3007,2.3011,2.3,2.3026,2.3023,2.3022,2.3036,2.305,2.3059,2.3079,2.309,2.3107,2.308,2.3036,2.3148,2.3082,2.3141,2.3142,2.3167,2.3166,2.3354,2.3176,2.3176,2.3176,2.3175,0,2.3055,2.3106,2.3063,2.3095,2.3152,2.3113,2.3171,2.3163,2.3162,2.3194,2.3147,2.3179,2.314,2.3169,2.3148,2.3205,2.3211,2.3204,2.3198,2.3208,2.3209,2.3217,2.3208,2.3181,2.3179,2.3179,2.3178,0,2.3202,2.3175,2.3229,2.3215,2.3213,2.3256,2.3244,2.3276,2.326,2.3301,2.3309,2.3285,2.3316,2.3291,2.3322,2.3308,2.3384,2.3366,2.3383,2.3378,2.344,2.3435,2.364,2.3666,2.3471,2.3473,2.3475,0,2.329,2.3328,2.3319,2.3336,2.3336,2.3364,2.3378,2.3343,2.336,2.3367,2.3398,2.3426,2.3445,2.35,2.3486,2.3511,2.3494,2.3564,2.3497,2.3507,2.3496,2.3494,2.3499,2.3578,2.358,2.3582,2.3583,0,2.345,2.3436,2.3456,2.3474,2.3492,2.3505,2.3514,2.3531,2.3495,2.3518,2.3549,2.3565,2.3597,2.3626,2.3647,2.3646,2.3611,2.3605,2.362,2.3631,2.364,2.3637,2.3421,2.36,2.3598,2.3597,2.3596,2.3596,2.3571,2.3603,2.3602,2.3628,2.3631,2.3642,2.3671,2.3659,2.3684,2.3706,2.3685,2.3724,2.3728,2.3752,2.3756,2.3788,2.3759,2.3781,2.3787,2.3793,2.3802,2.3635,2.3792,2.3791,2.3791,2.379,2.379,0,2.373,2.3727,2.3751,2.3765,2.3787,2.375,2.3759,2.378,2.3814,2.382,2.3841,2.388,2.3908,2.3899,2.3925,2.3952,2.3937,2.3961,2.3958,2.396,2.3826,2.381,2.3973,2.3973,2.3973,2.3973,2.3973,2.3973,2.3815,2.3868,2.3854,2.391,2.3907,2.3943,2.3952,2.3962,2.3967,2.4011,2.4035,2.4028,2.4029,2.4055,2.4081,2.4078,2.409,2.4121,2.4112,2.3987,2.3969,2.3951,2.3937,2.4123,2.4124,2.4243,2.4244,2.4245]}]]